Location: Ahausen
(50.4985°N, 8.2722°E)
Time: 19:28:01
(UTC+00:00)

Cosmos 1674 - Pass Details

Date: 18 September 2020
Orbit: 494 x 517 km, 82.5° (Epoch: 22 October)

Event Time Altitude Azimuth Distance (km) Brightness Sun altitude
Rises 19:02:09 0° 354° (N) 2,654 6.7 -14.6°
Reaches altitude 10° 19:04:23 10° 1° (N) 1,762 5.7 -15.0°
Maximum altitude 19:08:06 45° 75° (ENE) 718 3.0 -15.5°
Enters shadow 19:09:29 31° 126° (SE) 934 3.4 -15.7°
